Terminal Aerodrome Forecast
Issued by NWS St Louis, MO

Home | Current Version | Previous Version | Text Only | Print | Product List | Glossary On
Versions: 1 2 3 4 5 6 7 8 9 10 11 12 13 14 15 16 17 18 19 20 21 22 23 24 25 26
264
FTUS43 KLSX 301502 AAA
TAFSTL
TAF AMD
KSTL 301502Z 3015/0118 26010KT P6SM BKN120
     FM301630 26012G20KT P6SM BKN040
     FM010300 26009KT P6SM SKC=

USA.gov is the U.S. government's official web portal to all federal, state and local government web resources and services.